sat.trackr.live / text

‹ back to catalog

LEMUR-2-GREENBERG

NORAD 42837 · 2017-042N

PAYLOAD ACTIVE UNKNOWN

§ Identity

Operator
Country
US
Launch date
2017-07-14
Launch site
TYMSC
Launch vehicle
Mass (kg)
RCS (m²)

Purposes: earth_obs

External: N2YO · Heavens-Above · Gunter

§ Orbital elements

Epoch: 2026-09-19T22:46:12.476064Z

Period
93.87 min
Inclination
97.3865°
Eccentricity
0.0008712
Mean motion
15.34026769 rev/d
Perigee alt
457.9 km
Apogee alt
469.8 km
Semi-major
6,841.9 km
B*
3.6770e-4
RAAN
83.3660°
Arg perigee
33.6442°
Mean anomaly
326.5353°
Rev number
50,290

§ Raw data

LEMUR-2-GREENBERG1 42837U 17042N   26262.94875551  .00012046  00000+0  36770-3 0  99982 42837  97.3865  83.3660 0008712  33.6442 326.5353 15.34026769502906

JSON: /api/v1/satellites/42837 · /tle

For live sub-satellite position, see the globe view (requires WebGL).

§ Visibility from observer

Set your observer location to see the next 7 days of passes ≥ 10°. The values pass through the URL so the page stays shareable.

No JS? Fill the form by hand. The geolocation button needs JavaScript.